[[{"header":{"parameterUnit":"m.s-1","parameterCategory":1,"la1":30.2991,"la2":30.254,"lo1":-89.0895,"lo2":-89.0444,"dy":0.0017,"dx":0.0017,"nx":28,"ny":28,"refTime":"2025-08-08T21:00:00:Z","depth":0,"parameterNumber":2,"parameterNumberName":"U-component_of_WINDS"},"data":[0,0,0,0,0,0,0,0,0,0,0,0,0,0,0,0,0,0,0,0,0,0,0,0,0,0,0,0,0,0,0,0,0,0,0,0,0,0,0,0,0,0,0,0,0,0,0,0,0,0,0,0,0,0,0,0,0,0,-2.3652,-2.3654,0,-2.3784,-2.3786,-2.3787,-2.3714,-2.371,-2.3706,-2.3703,-2.3843,-2.385,-2.3857,0,0,0,0,0,0,0,0,0,0,0,0,0,-2.3341,-2.3347,-2.3652,-2.3654,-2.3655,-2.3784,-2.3786,-2.3788,-2.3714,-2.371,-2.3705,-2.3701,-2.3841,-2.3849,-2.3858,0,0,0,0,0,0,0,0,0,0,0,0,0,-2.3475,-2.3349,-2.3652,-2.3634,-2.3634,-2.3784,-2.3786,-2.3788,-2.3715,-2.371,-2.3704,-2.3699,-2.3838,-2.3849,-2.3859,-2.4036,0,0,-2.3892,-2.3897,0,0,0,0,0,0,0,0,-2.3468,-2.3487,-2.3635,-2.3635,-2.3635,-2.3727,-2.3728,-2.3872,-2.3717,-2.3685,-2.3703,-2.3696,-2.3809,-2.3822,-2.3859,-2.4042,-2.4048,-2.3893,-2.39,-2.3904,-2.3907,0,0,0,0,0,0,0,-2.3459,-2.3481,-2.3704,-2.3637,-2.3638,-2.3621,-2.3634,-2.3755,-2.3776,-2.3687,-2.3682,-2.3698,-2.3808,-2.3849,-2.3862,-2.405,-2.3893,-2.3902,-2.3909,-2.3913,-2.4389,-2.4395,0,0,0,0,0,0,-2.345,-2.3473,-2.37,-2.3708,-2.3536,-2.3631,-2.3646,-2.3703,-2.3775,-2.378,-2.3703,-2.3694,-2.3833,-2.385,-2.3867,-2.4081,-2.3904,-2.3914,-2.392,-2.4383,-2.439,-2.4397,0,0,0,0,0,0,-2.3443,-2.3471,-2.3695,-2.359,-2.3617,-2.3643,-2.3708,-2.3709,-2.3749,-2.3787,-2.3791,-2.374,-2.383,-2.3852,-2.3995,-2.4084,-2.3919,-2.3929,-2.4375,-2.4385,-2.4393,-2.4509,0,0,0,0,0,0,-2.3435,-2.3469,-2.3535,-2.3592,-2.3623,-2.3819,-2.3713,-2.3715,-2.3767,-2.3757,-2.3823,-2.3828,-2.3827,-2.3979,-2.4005,-2.4096,-2.3937,-2.4367,-2.438,-2.4391,-2.4497,-2.4521,-2.4541,0,0,0,0,0,-2.3424,-2.3562,-2.3538,-2.3566,-2.3705,-2.3825,-2.3843,-2.3837,-2.3775,-2.3842,-2.3867,-2.3826,-2.407,-2.3994,-2.4023,-2.4119,-2.4362,-2.4376,-2.439,-2.4487,-2.4516,-2.454,0,0,0,0,0,0,-2.3516,-2.3569,-2.3543,-2.3704,-2.376,-2.3812,-2.3897,-2.3867,-2.3944,-2.3932,-2.3923,-2.3938,-2.4088,-2.4117,-2.4032,-2.4295,-2.4206,-2.4227,-2.4271,-2.4298,-2.432,-2.4311,-2.3946,0,0,0,0,0,-2.3555,-2.3645,-2.3687,-2.3825,-2.3854,-2.3871,-2.3923,-2.3914,-2.3972,-2.3996,-2.4031,-2.4091,-2.4181,-2.4241,-2.4326,-2.45,-2.4515,-2.458,-2.4602,-2.462,-2.4639,-2.4736,-2.4767,-2.4443,-2.4442,-2.4442,0,0,-2.3636,-2.3676,-2.3734,-2.3845,-2.3887,-2.3984,-2.3892,-2.3997,-2.4069,-2.4012,-2.415,-2.4178,-2.4245,-2.4405,-2.4478,-2.4434,-2.4731,-2.4638,-2.4652,-2.4661,-2.4754,-2.4785,-2.4812,-2.4452,-2.445,-2.4449,0,0,-2.3834,-2.3872,-2.3992,-2.4037,-2.4103,-2.4113,-2.4142,-2.4199,-2.4215,-2.4353,-2.4313,-2.44,-2.4555,-2.4605,-2.465,-2.487,-2.4837,-2.4898,-2.5014,-2.5109,-2.5135,-2.5157,-2.5238,-2.5267,-2.4916,-2.4916,-2.4916,0,-2.3928,-2.4069,-2.4058,-2.4168,-2.4219,-2.4171,-2.4294,-2.4338,-2.4429,-2.4467,-2.4416,-2.4611,-2.4653,-2.4825,-2.4879,-2.4917,-2.4952,-2.4891,-2.5131,-2.5154,-2.5175,-2.5253,-2.5283,-2.4923,-2.4922,-2.4922,-2.4921,0,-2.4183,-2.4282,-2.4371,-2.446,-2.452,-2.4636,-2.4645,-2.4708,-2.4694,-2.4711,-2.4854,-2.4902,-2.4997,-2.5037,-2.5024,-2.5209,-2.5181,-2.5131,-2.5042,-2.5213,-2.5286,-2.5315,-2.4933,-2.4931,-2.4929,-2.4927,0,0,-2.4442,-2.4524,-2.4557,-2.4598,-2.4667,-2.4745,-2.486,-2.4952,-2.5008,-2.5072,-2.517,-2.5303,-2.5259,-2.5311,-2.5303,-2.5387,-2.5561,-2.5327,-2.5329,-2.5372,-2.5772,-2.5811,-2.5845,-2.5539,-2.5544,-2.5549,-2.5767,0,-2.4647,-2.4846,-2.4841,-2.5027,-2.512,-2.5077,-2.5178,-2.5233,-2.5252,-2.5335,-2.5356,-2.5452,-2.5384,-2.5416,-2.5496,-2.5523,-2.5642,-2.5507,-2.5633,-2.5638,-2.562,-2.5882,-2.5923,-2.6127,-2.5795,-2.58,-2.5804,0,-2.4912,-2.4985,-2.5181,-2.5239,-2.5278,-2.5368,-2.5454,-2.5533,-2.5596,-2.5604,-2.5663,-2.5643,-2.5763,-2.5669,-2.5835,-2.5743,-2.5795,-2.5816,-2.5824,-2.5837,-2.5733,-2.5906,-2.6192,-2.6223,-2.5848,-2.5844,-2.5841,0,-2.5086,-2.5233,-2.537,-2.5406,-2.5476,-2.5541,-2.5574,-2.563,-2.5687,-2.5762,-2.58,-2.5888,-2.5937,-2.6007,-2.6013,-2.5944,-2.6182,-2.6088,-2.6195,-2.6195,-2.6248,-2.6245,-2.6549,-2.6277,-2.6277,-2.6276,-2.6276,0,-2.5316,-2.5438,-2.5449,-2.5534,-2.567,-2.5663,-2.5799,-2.5826,-2.5878,-2.5969,-2.5936,-2.6023,-2.6024,-2.6113,-2.6118,-2.6257,-2.6279,-2.6291,-2.6291,-2.6295,-2.6294,-2.633,-2.6317,-2.6284,-2.6283,-2.6281,-2.628,0,-2.5534,-2.5545,-2.5692,-2.5747,-2.5764,-2.5863,-2.591,-2.5992,-2.6008,-2.6124,-2.6151,-2.6177,-2.628,-2.6292,-2.6413,-2.6417,-2.6585,-2.6569,-2.6564,-2.6562,-2.6669,-2.666,-2.7009,-2.7056,-2.6751,-2.6754,-2.6756,0,-2.5681,-2.5774,-2.5839,-2.5897,-2.5933,-2.6027,-2.6085,-2.6083,-2.6144,-2.6224,-2.6297,-2.6397,-2.6477,-2.6644,-2.6676,-2.6769,-2.6756,-2.6872,-2.677,-2.6772,-2.6762,-2.6757,-2.6768,-2.6893,-2.6896,-2.6899,-2.6901,0,-2.5943,-2.5944,-2.6027,-2.6115,-2.6184,-2.6253,-2.6317,-2.6367,-2.6373,-2.6445,-2.6549,-2.6611,-2.6735,-2.6836,-2.6927,-2.6963,-2.6936,-2.6933,-2.6963,-2.6969,-2.6963,-2.6971,-2.662,-2.6925,-2.6923,-2.6921,-2.692,-2.6919,-2.6131,-2.6213,-2.6272,-2.6367,-2.6415,-2.6477,-2.6557,-2.6583,-2.667,-2.677,-2.6764,-2.688,-2.6943,-2.7063,-2.7106,-2.7199,-2.7161,-2.7204,-2.7215,-2.7227,-2.7239,-2.6947,-2.7215,-2.7215,-2.7214,-2.7214,-2.7213,0,-2.6393,-2.643,-2.6517,-2.6608,-2.6684,-2.6648,-2.6718,-2.6785,-2.6887,-2.6947,-2.7027,-2.7149,-2.7247,-2.7287,-2.7383,-2.745,-2.744,-2.7476,-2.7473,-2.7482,-2.7266,-2.7231,-2.7483,-2.7483,-2.7483,-2.7483,-2.7483,-2.7483,-2.6539,-2.6676,-2.6685,-2.6848,-2.6883,-2.6996,-2.704,-2.7097,-2.7146,-2.7283,-2.7364,-2.7388,-2.7442,-2.7542,-2.7632,-2.7641,-2.768,-2.7722,-2.7726,-2.7524,-2.7497,-2.7471,-2.7439,-2.773,-2.773,-2.7935,-2.7937,-2.7938]},{"header":{"parameterUnit":"m.s-1","parameterCategory":1,"la1":30.2991,"la2":30.254,"lo1":-89.0895,"lo2":-89.0444,"dy":0.0017,"dx":0.0017,"nx":28,"ny":28,"refTime":"2025-08-08T21:00:00:Z","depth":0,"parameterNumber":3,"parameterNumberName":"V-component_of_WINDS"},"data":[0,0,0,0,0,0,0,0,0,0,0,0,0,0,0,0,0,0,0,0,0,0,0,0,0,0,0,0,0,0,0,0,0,0,0,0,0,0,0,0,0,0,0,0,0,0,0,0,0,0,0,0,0,0,0,0,0,0,-2.9685,-2.9685,0,-2.9656,-2.9656,-2.9656,-2.9602,-2.9601,-2.96,-2.9599,-2.9571,-2.9571,-2.9571,0,0,0,0,0,0,0,0,0,0,0,0,0,-2.9694,-2.9694,-2.9685,-2.9685,-2.9684,-2.9657,-2.9656,-2.9656,-2.9602,-2.9601,-2.96,-2.9599,-2.9571,-2.9571,-2.9571,0,0,0,0,0,0,0,0,0,0,0,0,0,-2.968,-2.9694,-2.9685,-2.9654,-2.9651,-2.9657,-2.9656,-2.9656,-2.9603,-2.9601,-2.9599,-2.9598,-2.9571,-2.9571,-2.9571,-2.9605,0,0,-2.9572,-2.9572,0,0,0,0,0,0,0,0,-2.9681,-2.968,-2.9659,-2.9656,-2.9653,-2.9631,-2.9649,-2.9639,-2.9603,-2.9621,-2.9599,-2.9597,-2.9592,-2.9591,-2.9589,-2.9603,-2.9602,-2.9572,-2.9572,-2.9573,-2.9573,0,0,0,0,0,0,0,-2.9682,-2.9681,-2.9674,-2.9659,-2.9655,-2.9642,-2.9638,-2.9647,-2.9616,-2.9619,-2.9615,-2.9613,-2.959,-2.9589,-2.9588,-2.9602,-2.9572,-2.9573,-2.9573,-2.9573,-2.9641,-2.9643,0,0,0,0,0,0,-2.9687,-2.9682,-2.9675,-2.9673,-2.9663,-2.9643,-2.9639,-2.964,-2.9616,-2.961,-2.9614,-2.961,-2.9589,-2.9587,-2.9587,-2.9623,-2.9573,-2.9573,-2.9573,-2.964,-2.9642,-2.9643,0,0,0,0,0,0,-2.9688,-2.9687,-2.9676,-2.9676,-2.9674,-2.9645,-2.9646,-2.964,-2.9638,-2.9612,-2.9606,-2.9618,-2.9588,-2.9586,-2.96,-2.9621,-2.9573,-2.9573,-2.9638,-2.964,-2.9642,-2.9697,0,0,0,0,0,0,-2.9688,-2.9688,-2.97,-2.9677,-2.9674,-2.969,-2.9647,-2.9641,-2.9639,-2.9634,-2.9614,-2.9609,-2.9586,-2.96,-2.9601,-2.9621,-2.9574,-2.9636,-2.9639,-2.9642,-2.9694,-2.9701,-2.9708,0,0,0,0,0,-2.9689,-2.9717,-2.9701,-2.97,-2.9689,-2.9691,-2.969,-2.9663,-2.9641,-2.9653,-2.9636,-2.961,-2.9619,-2.9602,-2.9602,-2.9623,-2.9634,-2.9638,-2.9641,-2.969,-2.97,-2.9708,0,0,0,0,0,0,-2.9744,-2.9713,-2.9695,-2.9717,-2.9707,-2.9682,-2.9697,-2.9674,-2.967,-2.9666,-2.9632,-2.9628,-2.9647,-2.9636,-2.9618,-2.9654,-2.9623,-2.9626,-2.966,-2.9669,-2.9676,-2.9678,-2.9574,0,0,0,0,0,-2.9758,-2.9763,-2.9736,-2.9758,-2.9754,-2.9726,-2.9726,-2.9706,-2.9695,-2.9691,-2.9674,-2.9665,-2.9665,-2.9666,-2.9666,-2.9692,-2.9687,-2.9706,-2.9714,-2.972,-2.9723,-2.9736,-2.9744,-2.9655,-2.9655,-2.9655,0,0,-2.9788,-2.9772,-2.9777,-2.9768,-2.9758,-2.9764,-2.9723,-2.9731,-2.9734,-2.9692,-2.9704,-2.9692,-2.9679,-2.9699,-2.9707,-2.9691,-2.9747,-2.9725,-2.973,-2.973,-2.9741,-2.9749,-2.9756,-2.9658,-2.9657,-2.9657,0,0,-2.9846,-2.9834,-2.985,-2.9841,-2.9827,-2.9808,-2.9812,-2.9791,-2.9781,-2.9793,-2.9761,-2.9765,-2.9767,-2.9759,-2.9755,-2.9809,-2.9785,-2.981,-2.9848,-2.986,-2.9867,-2.9873,-2.9892,-2.9899,-2.9813,-2.9814,-2.9814,0,-2.9885,-2.9891,-2.9862,-2.9871,-2.9868,-2.983,-2.9846,-2.9839,-2.9825,-2.9824,-2.9806,-2.9807,-2.9795,-2.9813,-2.9826,-2.9824,-2.9828,-2.9812,-2.9869,-2.9874,-2.988,-2.9897,-2.9904,-2.9817,-2.9816,-2.9816,-2.9816,0,-2.994,-2.9945,-2.996,-2.9947,-2.9946,-2.9959,-2.9931,-2.9934,-2.9914,-2.9897,-2.9909,-2.9894,-2.9889,-2.9892,-2.9873,-2.9907,-2.9897,-2.9875,-2.9842,-2.9892,-2.9907,-2.9914,-2.9821,-2.982,-2.9819,-2.9818,0,0,-3.0031,-3.0001,-3.0007,-3.0001,-2.9982,-2.9985,-2.9996,-2.9991,-2.9993,-2.9985,-2.9993,-2.9996,-2.9975,-2.997,-2.995,-2.9961,-3.0004,-2.9937,-2.9936,-2.9949,-3.004,-3.0057,-3.0065,-2.9988,-2.9989,-2.999,-3.0041,0,-3.0084,-3.01,-3.0074,-3.0097,-3.0101,-3.0065,-3.0075,-3.0064,-3.0049,-3.005,-3.0034,-3.0036,-3.0008,-3.0005,-3.0014,-2.9997,-3.0022,-2.9993,-2.9995,-2.9996,-2.9999,-3.0073,-3.0091,-3.0139,-3.0047,-3.0048,-3.0048,0,-3.0147,-3.0142,-3.0165,-3.0144,-3.0145,-3.0154,-3.0147,-3.0149,-3.0136,-3.0124,-3.0119,-3.0095,-3.0105,-3.0074,-3.0086,-3.0067,-3.0067,-3.0058,-3.006,-3.0058,-3.0025,-3.0073,-3.0154,-3.0161,-3.0058,-3.0057,-3.0057,0,-3.021,-3.0209,-3.0222,-3.0218,-3.0194,-3.0201,-3.0192,-3.0177,-3.0176,-3.017,-3.0169,-3.0164,-3.0162,-3.0159,-3.0134,-3.0114,-3.0149,-3.0116,-3.0139,-3.014,-3.0148,-3.0147,-3.0229,-3.0148,-3.0148,-3.0148,-3.0148,0,-3.0272,-3.0287,-3.025,-3.0259,-3.0275,-3.0245,-3.0262,-3.0248,-3.0236,-3.0241,-3.021,-3.0215,-3.0182,-3.0184,-3.0165,-3.0178,-3.0177,-3.0167,-3.0162,-3.017,-3.0171,-3.0169,-3.0165,-3.015,-3.015,-3.0149,-3.0149,0,-3.0345,-3.0321,-3.0333,-3.0309,-3.0304,-3.0317,-3.0296,-3.0303,-3.0286,-3.0293,-3.0293,-3.0266,-3.0266,-3.0241,-3.0237,-3.0224,-3.0245,-3.0234,-3.0249,-3.0245,-3.0269,-3.0267,-3.0352,-3.0361,-3.0275,-3.0276,-3.0277,0,-3.0385,-3.0396,-3.0374,-3.0375,-3.0366,-3.0369,-3.0367,-3.0338,-3.0337,-3.0323,-3.0332,-3.033,-3.0326,-3.0329,-3.0309,-3.0305,-3.0293,-3.0323,-3.0293,-3.03,-3.0293,-3.0293,-3.0293,-3.033,-3.0331,-3.0332,-3.0332,0,-3.0459,-3.0447,-3.0445,-3.044,-3.0438,-3.0433,-3.0425,-3.0427,-3.0395,-3.0396,-3.0396,-3.0394,-3.0389,-3.0387,-3.038,-3.037,-3.0346,-3.0342,-3.0347,-3.0355,-3.0363,-3.0359,-3.0266,-3.034,-3.0339,-3.0339,-3.0338,-3.0338,-3.0517,-3.0525,-3.051,-3.0509,-3.05,-3.0494,-3.0499,-3.0482,-3.0481,-3.0475,-3.0458,-3.0461,-3.0447,-3.0435,-3.0427,-3.0429,-3.0414,-3.0421,-3.0423,-3.0425,-3.0429,-3.0364,-3.0427,-3.0427,-3.0427,-3.0427,-3.0426,0,-3.0589,-3.0577,-3.0577,-3.0567,-3.0567,-3.0544,-3.0534,-3.0535,-3.0538,-3.0527,-3.0524,-3.0524,-3.0522,-3.0502,-3.0498,-3.0503,-3.0492,-3.0503,-3.0502,-3.05,-3.0443,-3.0439,-3.0512,-3.0512,-3.0512,-3.0512,-3.0512,-3.0512,-3.0626,-3.0638,-3.0624,-3.0631,-3.062,-3.0622,-3.0618,-3.0612,-3.0603,-3.0604,-3.0602,-3.0589,-3.0575,-3.0569,-3.0566,-3.056,-3.056,-3.0575,-3.0565,-3.0512,-3.0504,-3.0496,-3.0492,-3.0575,-3.0575,-3.0622,-3.0622,-3.0622]}]]